NJE2RB LSGG-LMML

Flight info

Callsign NJE2RB
Flight time N/A
Altitude 45000
Route MEDAM1N/04 MEDAM DCT NITAM DCT MOGBO DCT BAKRO DCT GIANO DCT MARON DCT EKOLA L12 GZO
Aircraft C700/M-SBDE1E2E3FGHIJ1J3J4J7P2RWXY/LB2D1

Departure

Time N/A
Airport Geneva International Airport (LSGG)

Arrival

Time 2026-04-30 19:12
Airport Malta International Airport (LMML)
Time Latitude Longitude Altitude Speed Heading
2026-04-30 17:39 45.82463 6.35973 18804 ft 354 kts 143°
2026-04-30 17:41 45.66848 6.52501 25877 ft 399 kts 143°
2026-04-30 17:42 45.62330 6.57263 27466 ft 409 kts 143°
2026-04-30 17:42 45.55327 6.64625 29707 ft 425 kts 144°
2026-04-30 17:43 45.50495 6.69683 31025 ft 436 kts 144°
2026-04-30 17:44 45.42994 6.77388 32698 ft 450 kts 146°
2026-04-30 17:44 45.35269 6.85185 34567 ft 454 kts 146°
2026-04-30 17:46 45.22914 6.98892 37280 ft 452 kts 136°
2026-04-30 17:47 45.13927 7.11235 39018 ft 450 kts 136°
2026-04-30 17:48 45.06049 7.25007 40128 ft 453 kts 125°
2026-04-30 17:48 45.00590 7.35957 40925 ft 455 kts 125°
2026-04-30 17:49 44.92159 7.49455 41452 ft 470 kts 134°
2026-04-30 17:50 44.82799 7.62943 41568 ft 491 kts 135°
2026-04-30 17:51 44.75611 7.73250 42209 ft 493 kts 135°
2026-04-30 17:52 44.68453 7.83467 42796 ft 494 kts 135°
2026-04-30 17:53 44.56384 8.00604 43737 ft 496 kts 135°
2026-04-30 17:54 44.46672 8.14318 44426 ft 497 kts 135°
2026-04-30 17:55 44.36901 8.28046 45021 ft 498 kts 135°
2026-04-30 17:56 44.28059 8.40412 45217 ft 503 kts 135°
2026-04-30 17:58 44.13299 8.60927 45255 ft 499 kts 135°
2026-04-30 18:00 43.93515 8.88187 45201 ft 500 kts 136°
2026-04-30 18:01 43.81048 9.05225 45206 ft 504 kts 136°
2026-04-30 18:02 43.66121 9.25490 45194 ft 499 kts 136°
2026-04-30 18:04 43.51151 9.45660 45202 ft 506 kts 136°
2026-04-30 18:06 43.31112 9.72436 45185 ft 505 kts 136°
2026-04-30 18:08 43.11972 9.93091 45192 ft 498 kts 157°
2026-04-30 18:10 42.86661 10.09135 45180 ft 503 kts 157°
2026-04-30 18:11 42.64551 10.23020 45155 ft 500 kts 157°
2026-04-30 18:13 42.48825 10.32829 45154 ft 505 kts 157°
2026-04-30 18:14 42.32951 10.42676 45139 ft 500 kts 158°
2026-04-30 18:15 42.13836 10.54462 45140 ft 507 kts 158°
2026-04-30 18:16 42.01070 10.62289 45132 ft 502 kts 158°
2026-04-30 18:17 41.94730 10.66163 45132 ft 500 kts 158°
2026-04-30 18:18 41.85180 10.71983 45129 ft 504 kts 158°
2026-04-30 18:18 41.78816 10.75851 45128 ft 507 kts 158°
2026-04-30 18:19 41.72370 10.79759 45130 ft 510 kts 158°
2026-04-30 18:19 41.65867 10.83693 45139 ft 515 kts 158°
2026-04-30 18:20 41.59307 10.87653 45140 ft 518 kts 158°
2026-04-30 18:20 41.52754 10.91601 45141 ft 515 kts 158°
2026-04-30 18:21 41.46231 10.95521 45135 ft 513 kts 158°
2026-04-30 18:21 41.39737 10.99417 45135 ft 512 kts 158°
2026-04-30 18:22 41.33225 11.03312 45130 ft 515 kts 158°
2026-04-30 18:22 41.23386 11.09183 45130 ft 518 kts 159°
2026-04-30 18:23 41.16845 11.13077 45125 ft 516 kts 159°
2026-04-30 18:23 41.10313 11.16955 45120 ft 513 kts 159°
2026-04-30 18:24 41.00550 11.22735 45122 ft 513 kts 159°
2026-04-30 18:25 40.94015 11.26594 45124 ft 516 kts 159°
2026-04-30 18:25 40.84191 11.32380 45123 ft 518 kts 159°
2026-04-30 18:26 40.74349 11.38158 45124 ft 514 kts 159°
2026-04-30 18:27 40.64581 11.43874 45131 ft 510 kts 160°
2026-04-30 18:28 40.54855 11.49544 45125 ft 511 kts 160°
2026-04-30 18:28 40.45066 11.55236 45125 ft 515 kts 160°
2026-04-30 18:29 40.33098 11.62170 45118 ft 510 kts 160°
2026-04-30 18:30 40.20152 11.69638 45117 ft 509 kts 160°
2026-04-30 18:31 40.10375 11.75259 45118 ft 513 kts 160°
2026-04-30 18:32 40.00604 11.80860 45116 ft 509 kts 160°
2026-04-30 18:33 39.90917 11.86393 45112 ft 507 kts 161°
2026-04-30 18:33 39.81235 11.91907 45113 ft 511 kts 161°
2026-04-30 18:34 39.71447 11.97464 45106 ft 511 kts 161°
2026-04-30 18:35 39.64939 12.01149 45110 ft 508 kts 161°
2026-04-30 18:35 39.58471 12.04805 45102 ft 506 kts 161°
2026-04-30 18:36 39.48837 12.10233 45101 ft 510 kts 161°
2026-04-30 18:37 39.39035 12.15743 45104 ft 513 kts 161°
2026-04-30 18:37 39.32496 12.19408 45104 ft 511 kts 161°
2026-04-30 18:38 39.25987 12.23049 45099 ft 509 kts 161°
2026-04-30 18:38 39.19509 12.26666 45102 ft 508 kts 161°
2026-04-30 18:39 39.12990 12.30296 45100 ft 512 kts 161°
2026-04-30 18:39 39.06468 12.33923 45095 ft 515 kts 161°
2026-04-30 18:40 38.99990 12.37518 45094 ft 514 kts 161°
2026-04-30 18:40 38.93439 12.41145 45095 ft 512 kts 161°
2026-04-30 18:41 38.86920 12.44780 45084 ft 511 kts 158°
2026-04-30 18:41 38.80653 12.49215 45087 ft 516 kts 155°
2026-04-30 18:42 38.74356 12.53633 45083 ft 521 kts 155°
2026-04-30 18:42 38.64853 12.60358 45077 ft 518 kts 155°
2026-04-30 18:45 38.30230 12.84628 45051 ft 519 kts 155°
2026-04-30 18:46 38.23912 12.89027 45048 ft 517 kts 155°
2026-04-30 18:46 38.17583 12.93425 45042 ft 520 kts 155°
2026-04-30 18:47 38.11217 12.97842 45044 ft 523 kts 155°
2026-04-30 18:47 38.04818 13.02273 45045 ft 523 kts 155°
2026-04-30 18:48 37.98479 13.06650 45046 ft 521 kts 155°
2026-04-30 18:48 37.92125 13.11034 45054 ft 519 kts 156°
2026-04-30 18:49 37.85784 13.15395 44898 ft 520 kts 156°
2026-04-30 18:49 37.82602 13.17582 44200 ft 520 kts 156°
2026-04-30 18:49 37.79450 13.19750 43525 ft 511 kts 156°
2026-04-30 18:49 37.76351 13.21878 42854 ft 503 kts 156°
2026-04-30 18:50 37.73292 13.23970 42193 ft 496 kts 156°
2026-04-30 18:50 37.70278 13.26032 41552 ft 489 kts 156°
2026-04-30 18:50 37.67297 13.28070 40911 ft 486 kts 156°
2026-04-30 18:50 37.64328 13.30099 40276 ft 485 kts 157°
2026-04-30 18:51 37.61354 13.32125 39640 ft 488 kts 157°
2026-04-30 18:51 37.58350 13.34172 38990 ft 493 kts 157°
2026-04-30 18:51 37.55356 13.36212 38297 ft 497 kts 157°
2026-04-30 18:51 37.52269 13.38316 37623 ft 498 kts 156°
2026-04-30 18:52 37.49261 13.40363 36981 ft 498 kts 156°
2026-04-30 18:52 37.46211 13.42434 36323 ft 498 kts 156°
2026-04-30 18:52 37.43160 13.44505 35667 ft 498 kts 156°
2026-04-30 18:52 37.40105 13.46580 35005 ft 499 kts 156°
2026-04-30 18:53 37.37052 13.48647 34349 ft 499 kts 156°
2026-04-30 18:53 37.33995 13.50714 33651 ft 499 kts 156°
2026-04-30 18:53 37.30947 13.52777 32991 ft 497 kts 156°
2026-04-30 18:53 37.27896 13.54839 32335 ft 499 kts 156°
2026-04-30 18:54 37.24862 13.56885 31684 ft 503 kts 156°
2026-04-30 18:54 37.21769 13.58970 31018 ft 506 kts 156°
2026-04-30 18:54 37.18663 13.61063 30348 ft 508 kts 156°
2026-04-30 18:54 37.15548 13.63163 29627 ft 506 kts 156°
2026-04-30 18:55 37.12460 13.65217 28955 ft 496 kts 158°
2026-04-30 18:55 37.06198 13.68454 27674 ft 483 kts 162°
2026-04-30 18:55 37.03110 13.70078 27045 ft 481 kts 161°
2026-04-30 18:56 36.96957 13.73241 25779 ft 474 kts 162°
2026-04-30 18:56 36.93917 13.74796 25158 ft 469 kts 161°
2026-04-30 18:56 36.90912 13.76348 24545 ft 466 kts 161°
2026-04-30 18:57 36.84962 13.79398 23284 ft 458 kts 161°
2026-04-30 18:57 36.82036 13.80897 22672 ft 452 kts 161°
2026-04-30 18:57 36.79152 13.82373 22087 ft 445 kts 161°
2026-04-30 18:58 36.73467 13.85279 20920 ft 438 kts 161°
2026-04-30 18:58 36.70696 13.86691 20354 ft 435 kts 161°
2026-04-30 18:58 36.67870 13.88135 19770 ft 432 kts 161°
2026-04-30 18:59 36.62410 13.90916 18652 ft 422 kts 161°
2026-04-30 19:00 36.54389 13.94995 16965 ft 409 kts 161°
2026-04-30 19:00 36.51763 13.96344 16421 ft 408 kts 159°
2026-04-30 19:00 36.46989 14.00128 15340 ft 397 kts 152°
2026-04-30 19:01 36.42169 14.02693 14321 ft 361 kts 161°
2026-04-30 19:01 36.39915 14.03950 13826 ft 351 kts 155°
2026-04-30 19:02 36.35745 14.06782 12749 ft 332 kts 155°
2026-04-30 19:02 36.31688 14.09257 11715 ft 319 kts 155°
2026-04-30 19:03 36.27809 14.11724 10730 ft 308 kts 155°
2026-04-30 19:03 36.24057 14.14077 9768 ft 300 kts 155°
2026-04-30 19:04 36.20386 14.16381 8764 ft 292 kts 155°
2026-04-30 19:04 36.16816 14.18621 7921 ft 282 kts 154°
2026-04-30 19:05 36.13445 14.20731 7200 ft 271 kts 154°
2026-04-30 19:05 36.10147 14.22797 6496 ft 264 kts 154°
2026-04-30 19:06 36.06992 14.24770 5812 ft 253 kts 154°
2026-04-30 19:06 36.05456 14.25730 5475 ft 242 kts 153°
2026-04-30 19:06 36.02556 14.27543 4854 ft 226 kts 153°
2026-04-30 19:07 36.00137 14.29854 4215 ft 219 kts 131°
2026-04-30 19:07 35.99076 14.31176 3933 ft 216 kts 134°
2026-04-30 19:08 35.97009 14.33743 3396 ft 204 kts 132°
2026-04-30 19:08 35.95176 14.36022 2898 ft 174 kts 131°
2026-04-30 19:08 35.94348 14.37044 2693 ft 155 kts 133°
2026-04-30 19:09 35.92934 14.38821 2296 ft 146 kts 132°
2026-04-30 19:09 35.92217 14.39691 2106 ft 143 kts 130°
2026-04-30 19:09 35.91531 14.40573 1912 ft 143 kts 131°
2026-04-30 19:10 35.90141 14.42304 1540 ft 142 kts 130°
2026-04-30 19:10 35.88716 14.44042 1151 ft 144 kts 130°
2026-04-30 19:11 35.88023 14.44936 960 ft 144 kts 131°
2026-04-30 19:11 35.86598 14.46702 558 ft 146 kts 132°
2026-04-30 19:11 35.85890 14.47575 369 ft 144 kts 134°
2026-04-30 19:12 35.85210 14.48418 270 ft 123 kts 135°
2026-04-30 19:12 35.84726 14.49013 253 ft 72 kts 135°
2026-04-30 19:12 35.84510 14.49299 253 ft 21 kts 124°
2026-04-30 19:13 35.84449 14.49542 253 ft 9 kts 65°
2026-04-30 19:13 35.84553 14.49531 253 ft 11 kts 314°
2026-04-30 19:13 35.84618 14.49449 253 ft 15 kts 315°
2026-04-30 19:14 35.84702 14.49345 253 ft 19 kts 315°
2026-04-30 19:14 35.84803 14.49221 253 ft 17 kts 315°
2026-04-30 19:14 35.84867 14.49142 253 ft 8 kts 315°
2026-04-30 19:14 35.84916 14.49081 253 ft 12 kts 315°
2026-04-30 19:15 35.84972 14.48980 253 ft 16 kts 294°
2026-04-30 19:15 35.85112 14.48722 260 ft 15 kts 310°
2026-04-30 19:15 35.85197 14.48649 265 ft 15 kts 335°
2026-04-30 19:16 35.85296 14.48588 266 ft 17 kts 321°
2026-04-30 19:16 35.85378 14.48482 266 ft 18 kts 315°
2026-04-30 19:16 35.85571 14.48242 266 ft 15 kts 315°
2026-04-30 19:17 35.85652 14.48204 266 ft 14 kts 351°
2026-04-30 19:17 35.85893 14.48158 266 ft 21 kts 351°
2026-04-30 19:17 35.85975 14.48106 266 ft 12 kts 278°
2026-04-30 19:18 35.85971 14.47978 266 ft 14 kts 243°
2026-04-30 19:18 35.85902 14.47766 266 ft 14 kts 248°
2026-04-30 19:18 35.85896 14.47672 266 ft 11 kts 315°
2026-04-30 19:19 35.85960 14.47595 266 ft 15 kts 315°
2026-04-30 19:19 35.86010 14.47535 266 ft 6 kts 329°
2026-04-30 19:19 35.86021 14.47571 266 ft 0 kts 88°
2026-04-30 19:20 35.86021 14.47573 266 ft 0 kts 88°